KF6ILA Weather Reports


Display with metric or nautical units.
time (UTC)temp
F
wind
direction
speed
MPH
gust
MPH
rain 1hr
in
rain 24hr
in
rain mn
in
humidity
%
barometer
mb
20260831063447 69 254 10.0 18.0 0.00 0.00 0.00 39 1014.8
20260831062950 69 246 11.0 20.0 0.00 0.00 0.00 38 1014.8
20260831062453 69 248 14.0 20.0 0.00 0.00 0.00 38 1014.9
20260831061956 69 254 11.0 19.0 0.00 0.00 0.00 38 1014.6
20260831061459 69 250 12.0 21.0 0.00 0.00 0.00 38 1014.7
20260831061002 69 255 14.0 21.0 0.00 0.00 0.00 37 1014.7
20260831055014 69 262 10.0 17.0 0.00 0.00 0.00 33 1014.6
20260831054517 69 263 12.0 17.0 0.00 0.00 0.00 34 1014.6
20260831053523 69 258 10.0 19.0 0.00 0.00 0.00 38 1014.6
20260831053026 69 257 13.0 19.0 0.00 0.00 0.00 38 1014.6
20260831051535 69 255 12.0 21.0 0.00 0.00 0.00 41 1015.3
20260831051038 69 259 14.0 21.0 0.00 0.00 0.00 41 1015.3
20260831050541 68 255 12.0 20.0 0.00 0.00 0.00 43 1015.2
20260831044553 68 254 14.0 19.0 0.00 0.00 0.00 47 1015.3
20260831044056 68 254 13.0 19.0 0.00 0.00 0.00 49 1015.4
20260831042108 68 249 13.0 20.0 0.00 0.00 0.00 57 1015.2
20260831041611 68 251 11.0 20.0 0.00 0.00 0.00 58 1015.2
20260831041114 68 259 14.0 20.0 0.00 0.00 0.00 59 1015.2
20260831040617 67 258 12.0 19.0 0.00 0.00 0.00 59 1015.1
20260831033635 68 258 12.0 21.0 0.00 0.00 0.00 64 1014.8
20260831032641 68 257 14.0 20.0 0.00 0.00 0.00 63 1014.5
20260831032144 67 248 13.0 20.0 0.00 0.00 0.00 65 1014.6
20260831031647 67 255 13.0 18.0 0.00 0.00 0.00 66 1014.5
20260831030653 68 247 14.0 19.0 0.00 0.00 0.00 67 1014.5
20260831030156 68 254 13.0 23.0 0.00 0.00 0.00 67 1014.5
20260831025659 68 249 14.0 23.0 0.00 0.00 0.00 67 1014.5
20260831024208 68 256 15.0 21.0 0.00 0.00 0.00 66 1014.5
20260831023711 69 255 13.0 20.0 0.00 0.00 0.00 65 1014.5
20260831023214 69 260 14.0 19.0 0.00 0.00 0.00 64 1014.5
20260831022717 69 267 15.0 20.0 0.00 0.00 0.00 63 1014.4
20260831022220 70 265 14.0 22.0 0.00 0.00 0.00 62 1014.5
20260831021723 70 266 15.0 22.0 0.00 0.00 0.00 61 1014.4
20260831020232 72 258 16.0 22.0 0.00 0.00 0.00 56 1014.2
20260831015735 72 256 12.0 25.0 0.00 0.00 0.00 54 1014.2
20260831015238 73 267 11.0 25.0 0.00 0.00 0.00 53 1014.1
20260831014741 73 256 19.0 25.0 0.00 0.00 0.00 51 1014.1
20260831014244 73 259 19.0 25.0 0.00 0.00 0.00 50 1014.1
20260831013747 74 257 19.0 25.0 0.00 0.00 0.00 48 1014.0
20260831013250 74 259 17.0 25.0 0.00 0.00 0.00 47 1014.1
20260831012753 75 262 19.0 27.0 0.00 0.00 0.00 46 1014.1
20260831012256 75 263 19.0 27.0 0.00 0.00 0.00 44 1014.1
20260831011759 75 256 19.0 27.0 0.00 0.00 0.00 44 1014.1
20260831011302 76 259 18.0 27.0 0.00 0.00 0.00 44 1014.0
20260831010805 76 257 17.0 26.0 0.00 0.00 0.00 42 1014.0
20260831010308 77 260 19.0 25.0 0.00 0.00 0.00 40 1014.1
20260831005811 78 271 15.0 22.0 0.00 0.00 0.00 40 1014.2
20260831004817 78 266 15.0 25.0 0.00 0.00 0.00 39 1014.2
20260831004320 79 281 17.0 25.0 0.00 0.00 0.00 38 1014.3
20260831003823 79 267 11.0 21.0 0.00 0.00 0.00 38 1014.2
20260831003326 79 281 9.0 25.0 0.00 0.00 0.00 39 1014.2
20260831002829 79 272 14.0 25.0 0.00 0.00 0.00 38 1014.3
20260831002332 80 267 15.0 22.0 0.00 0.00 0.00 36 1014.4
20260831001835 80 266 13.0 22.0 0.00 0.00 0.00 36 1014.5
20260831001338 80 255 11.0 23.0 0.00 0.00 0.00 35 1014.6
20260831000841 80 258 17.0 24.0 0.00 0.00 0.00 33 1014.3
20260831000344 80 267 13.0 24.0 0.00 0.00 0.00 33 1014.4
20260830235847 80 261 17.0 24.0 0.00 0.00 0.00 32 1014.5
20260830235350 81 257 12.0 24.0 0.00 0.00 0.00 32 1014.6
20260830234853 81 264 16.0 24.0 0.00 0.00 0.00 31 1014.6
20260830234356 81 262 14.0 23.0 0.00 0.00 0.00 32 1014.7
20260830233859 81 255 13.0 23.0 0.00 0.00 0.00 31 1014.8
20260830233402 81 244 14.0 23.0 0.00 0.00 0.00 30 1014.7
20260830232408 82 261 11.0 24.0 0.00 0.00 0.00 31 1014.7
20260830231911 82 277 17.0 23.0 0.00 0.00 0.00 32 1014.5
20260830231414 82 271 16.0 24.0 0.00 0.00 0.00 31 1014.6
20260830230917 82 257 16.0 25.0 0.00 0.00 0.00 31 1014.7
20260830225923 83 241 15.0 24.0 0.00 0.00 0.00 32 1014.9
20260830225426 83 265 13.0 24.0 0.00 0.00 0.00 32 1015.0
20260830224929 83 269 13.0 22.0 0.00 0.00 0.00 31 1014.9
20260830222941 83 293 11.0 22.0 0.00 0.00 0.00 32 1015.2
20260830222444 83 255 13.0 21.0 0.00 0.00 0.00 32 1015.2
20260830221947 84 259 13.0 21.0 0.00 0.00 0.00 32 1015.1
20260830221450 84 252 13.0 21.0 0.00 0.00 0.00 32 1015.1
20260830220953 84 292 13.0 24.0 0.00 0.00 0.00 32 1015.1
20260830220456 85 245 12.0 24.0 0.00 0.00 0.00 33 1015.2
20260830215959 86 284 13.0 20.0 0.00 0.00 0.00 32 1015.2
20260830215502 85 268 6.0 18.0 0.00 0.00 0.00 33 1015.2
20260830214508 84 245 14.0 23.0 0.00 0.00 0.00 34 1015.3
20260830214011 84 292 12.0 22.0 0.00 0.00 0.00 34 1015.4
20260830213017 85 255 10.0 20.0 0.00 0.00 0.00 34 1015.5
20260830212023 85 288 15.0 24.0 0.00 0.00 0.00 34 1015.6
20260830211526 85 260 8.0 18.0 0.00 0.00 0.00 35 1015.6
20260830210532 85 289 12.0 26.0 0.00 0.00 0.00 34 1015.7
20260830205538 86 288 11.0 19.0 0.00 0.00 0.00 34 1015.8
20260830204544 85 273 9.0 21.0 0.00 0.00 0.00 34 1015.8
20260830204047 85 226 12.0 21.0 0.00 0.00 0.00 34 1015.9
20260830202556 85 218 12.0 20.0 0.00 0.00 0.00 33 1016.0
20260830202059 85 224 14.0 20.0 0.00 0.00 0.00 35 1016.0
20260830201602 85 239 10.0 19.0 0.00 0.00 0.00 36 1016.2
20260830201105 85 236 11.0 20.0 0.00 0.00 0.00 36 1016.1
20260830200111 85 238 10.0 20.0 0.00 0.00 0.00 35 1016.1
20260830195614 85 236 12.0 20.0 0.00 0.00 0.00 35 1016.0
20260830194620 85 221 12.0 18.0 0.00 0.00 0.00 34 1016.2
20260830194123 86 238 10.0 19.0 0.00 0.00 0.00 33 1016.1
20260830193129 86 212 10.0 16.0 0.00 0.00 0.00 33 1016.3
20260830192135 85 203 7.0 20.0 0.00 0.00 0.00 33 1016.2
20260830190644 85 229 12.0 20.0 0.00 0.00 0.00 32 1016.4
20260830185650 84 276 9.0 16.0 0.00 0.00 0.00 33 1016.5
20260830185153 84 248 10.0 16.0 0.00 0.00 0.00 33 1016.6
20260830182708 84 243 9.0 16.0 0.00 0.00 0.00 33 1016.8
20260830181714 84 267 7.0 15.0 0.00 0.00 0.00 32 1016.9
20260830181217 84 252 8.0 15.0 0.00 0.00 0.00 32 1016.9
20260830180720 84 226 5.0 15.0 0.00 0.00 0.00 31 1016.9
20260830180223 83 229 4.0 17.0 0.00 0.00 0.00 31 1016.8
20260830174732 83 243 9.0 17.0 0.00 0.00 0.00 30 1016.7
20260830173738 82 223 9.0 22.0 0.00 0.00 0.00 30 1016.7
20260830173241 82 203 10.0 22.0 0.00 0.00 0.00 29 1016.7
20260830172247 82 232 9.0 16.0 0.00 0.00 0.00 31 1016.4
20260830171253 82 205 10.0 15.0 0.00 0.00 0.00 31 1016.4
20260830165802 81 246 7.0 12.0 0.00 0.00 0.00
20260830165306 81 252 8.0 15.0 0.00 0.00 0.00 34 1016.3
20260830164311 80 277 7.0 15.0 0.00 0.00 0.00 35 1016.2
20260830163814 80 283 5.0 13.0 0.00 0.00 0.00 36 1016.2
20260830163317 79 223 5.0 17.0 0.00 0.00 0.00 37 1016.1
20260830162323 78 275 12.0 17.0 0.00 0.00 0.00 37 1016.0
20260830161826 78 259 8.0 15.0 0.00 0.00 0.00 39 1015.7
20260830161329 78 265 9.0 17.0 0.00 0.00 0.00 39 1015.8
20260830160832 77 244 10.0 20.0 0.00 0.00 0.00 39 1015.7
20260830160336 77 261 12.0 21.0 0.00 0.00 0.00 39 1015.8
20260830155838 77 254 12.0 21.0 0.00 0.00 0.00 40 1015.7
20260830154844 76 254 11.0 21.0 0.00 0.00 0.00 41 1015.7
20260830153353 75 255 11.0 20.0 0.00 0.00 0.00 42 1015.6
20260830151902 75 266 15.0 21.0 0.00 0.00 0.00 43 1015.3
20260830151405 74 256 12.0 20.0 0.00 0.00 0.00 44 1015.3
20260830150908 74 259 12.0 20.0 0.00 0.00 0.00 44 1015.3
20260830150411 74 250 13.0 18.0 0.00 0.00 0.00 44 1015.4
20260830145914 73 256 13.0 18.0 0.00 0.00 0.00 44 1015.4
20260830145417 73 257 14.0 19.0 0.00 0.00 0.00 45 1015.5
20260830144423 72 260 11.0 18.0 0.00 0.00 0.00 46 1015.5
20260830142932 71 263 13.0 19.0 0.00 0.00 0.00 47 1015.4
20260830142435 71 254 13.0 19.0 0.00 0.00 0.00 47 1015.4
20260830141938 71 255 10.0 18.0 0.00 0.00 0.00 47 1015.5
20260830141441 71 254 11.0 18.0 0.00 0.00 0.00 47 1015.4
20260830135950 70 256 12.0 17.0 0.00 0.00 0.00 48 1015.2
20260830135453 70 264 13.0 19.0 0.00 0.00 0.00 48 1015.2
20260830134459 70 258 13.0 19.0 0.00 0.00 0.00 48 1015.0
20260830134002 70 251 13.0 19.0 0.00 0.00 0.00 48 1015.0
20260830133008 70 256 13.0 19.0 0.00 0.00 0.00 49 1014.9
20260830132511 70 254 11.0 19.0 0.00 0.00 0.00 49 1014.8
20260830131517 70 255 12.0 21.0 0.00 0.00 0.00 50 1014.8
20260830125529 70 250 12.0 21.0 0.00 0.00 0.00 51 1014.7
20260830124535 70 248 12.0 21.0 0.00 0.00 0.00 52 1014.7
20260830124038 70 254 14.0 21.0 0.00 0.00 0.00 52 1014.6
20260830122547 70 255 13.0 21.0 0.00 0.00 0.00 52 1014.7
20260830122050 70 259 15.0 21.0 0.00 0.00 0.00 52 1014.7
20260830121056 69 264 12.0 20.0 0.00 0.00 0.00 53 1014.6
20260830115605 69 264 12.0 20.0 0.00 0.00 0.00 52 1014.7
20260830115108 69 268 11.0 19.0 0.00 0.00 0.00 52 1014.5
20260830113617 69 264 13.0 25.0 0.00 0.00 0.00 52 1014.6
20260830113120 69 269 13.0 25.0 0.00 0.00 0.00 52 1014.5
20260830112126 69 260 13.0 21.0 0.00 0.00 0.00 53 1014.6
20260830111629 69 260 13.0 21.0 0.00 0.00 0.00 53 1014.4
20260830110635 69 256 13.0 22.0 0.00 0.00 0.00 53 1014.4
20260830110138 69 260 13.0 23.0 0.00 0.00 0.00 53 1014.4
20260830104647 69 258 16.0 24.0 0.00 0.00 0.00 54 1014.4
20260830103653 69 262 17.0 24.0 0.00 0.00 0.00 54 1014.3
20260830103156 69 259 17.0 24.0 0.00 0.00 0.00 54 1014.3
20260830101208 69 256 18.0 26.0 0.00 0.00 0.00 56 1014.2
20260830100711 69 257 18.0 26.0 0.00 0.00 0.00 56 1014.0
20260830095717 69 260 17.0 27.0 0.00 0.00 0.00 56 1014.1
20260830095220 69 257 16.0 27.0 0.00 0.00 0.00 56 1014.2
20260830094723 69 260 16.0 25.0 0.00 0.00 0.00 56 1014.1
20260830094226 69 260 18.0 27.0 0.00 0.00 0.00 56 1014.2
20260830093729 69 263 17.0 27.0 0.00 0.00 0.00 56 1014.0
20260830092735 69 257 17.0 24.0 0.00 0.00 0.00 56 1014.2
20260830091741 69 259 15.0 23.0 0.00 0.00 0.00 56 1014.2
20260830091244 69 259 13.0 21.0 0.00 0.00 0.00 55 1014.3
20260830090747 70 257 14.0 21.0 0.00 0.00 0.00 55 1014.3
20260830085753 70 254 15.0 23.0 0.00 0.00 0.00 54 1014.4
20260830085256 70 255 14.0 23.0 0.00 0.00 0.00 54 1014.4
20260830084759 70 261 16.0 22.0 0.00 0.00 0.00 53 1014.4
20260830084302 70 257 16.0 22.0 0.00 0.00 0.00 53 1014.3
20260830083308 70 258 14.0 21.0 0.00 0.00 0.00 52 1014.5
20260830082811 70 254 13.0 22.0 0.00 0.00 0.00 52 1014.6
20260830082314 71 251 13.0 22.0 0.00 0.00 0.00 52 1014.7
20260830081817 71 253 15.0 22.0 0.00 0.00 0.00 52 1014.6
20260830081320 70 256 16.0 22.0 0.00 0.00 0.00 52 1014.7
20260830080326 71 246 15.0 22.0 0.00 0.00 0.00 51 1014.6
20260830075829 71 247 17.0 22.0 0.00 0.00 0.00 51 1014.8
20260830075332 71 251 15.0 21.0 0.00 0.00 0.00 51 1014.8
20260830074835 71 248 15.0 20.0 0.00 0.00 0.00 51 1014.8
20260830073841 71 242 12.0 21.0 0.00 0.00 0.00 50 1014.9
20260830073344 71 252 15.0 21.0 0.00 0.00 0.00 50 1014.9
20260830072847 71 250 15.0 22.0 0.00 0.00 0.00 50 1015.0
20260830072350 71 251 15.0 22.0 0.00 0.00 0.00 50 1015.0
20260830071853 71 252 14.0 23.0 0.00 0.00 0.00 50 1015.1
20260830071356 71 247 13.0 23.0 0.00 0.00 0.00 50 1015.1
20260830070859 71 247 12.0 20.0 0.00 0.00 0.00 50 1015.1
20260830065905 71 256 14.0 20.0 0.00 0.00 0.00 49 1015.1
20260830065408 72 254 15.0 20.0 0.00 0.00 0.00 49 1015.1
20260830064414 71 245 14.0 18.0 0.00 0.00 0.00 49 1015.1
20260830063917 72 247 13.0 18.0 0.00 0.00 0.00 49 1015.0